Location: San Gennaro Vesuviano
(40.8833°N, 14.5333°E)
Time: 09:35:03
(UTC+00:00)

OBJECT-B - Pass Details

Date: 22 April 2021
Orbit: 415 x 424 km, 97.0° (Epoch: 25 April)

Event Time Altitude Azimuth Distance (km) Brightness Sun altitude
Exits shadow 18:20:27 - 140° (SE) 1,834 3.4 -6.4°
Reaches altitude 10° 18:21:18 10° 134° (SE) 1,498 3.0 -6.6°
Maximum altitude 18:24:07 29° 73° (ENE) 807 1.8 -7.1°
Drops below altitude 10° 18:26:58 10° 11° (N) 1,514 3.7 -7.5°
Sets 18:29:08 0° 360° (N) 2,386 4.9 -7.9°
